[[{"header":{"parameterUnit":"m.s-1","parameterCategory":2,"la1":30.2991,"la2":30.254,"lo1":-89.0895,"lo2":-89.0444,"dy":0.0017,"dx":0.0017,"nx":28,"ny":28,"refTime":"2024-04-24T21:00:00:Z","depth":"0","parameterNumber":2,"parameterNumberName":"U-component_of_CURRENTS"},"data":[0,0,0,0,0,0,0,0,0,0,0,0,0,0,0,0,0,0,0,0,0,0,0,0,0,0,0,0,0,0,0,0,0,0,0,0,0,0,0,0,0,0,0,0,0,0,0,0,0,0,0,0,0,0,0,0,0,0,0.1912,0.1912,0,0.1955,0.1956,0.1956,0.1963,0.1962,0.1962,0.1961,0.2004,0.2005,0.2007,0,0,0,0,0,0,0,0,0,0,0,0,0,0.1879,0.188,0.1912,0.1912,0.1913,0.1955,0.1956,0.1956,0.1963,0.1962,0.1962,0.1961,0.2003,0.2005,0.2007,0,0,0,0,0,0,0,0,0,0,0,0,0,0.1905,0.188,0.1912,0.1921,0.1922,0.1955,0.1956,0.1956,0.1963,0.1962,0.1961,0.1961,0.2002,0.2005,0.2007,0.2034,0,0,0.2014,0.2015,0,0,0,0,0,0,0,0,0.1904,0.1907,0.1919,0.192,0.1922,0.1952,0.196,0.1982,0.1963,0.1948,0.1961,0.1961,0.1986,0.199,0.2,0.2036,0.2038,0.2014,0.2016,0.2017,0.2017,0,0,0,0,0,0,0,0.1902,0.1905,0.193,0.192,0.1921,0.1938,0.194,0.1964,0.1971,0.1949,0.195,0.1954,0.1987,0.1998,0.2001,0.2039,0.2014,0.2016,0.2018,0.2018,0.2154,0.2156,0,0,0,0,0,0,0.1894,0.1903,0.1928,0.1931,0.191,0.1939,0.1942,0.1944,0.1971,0.1974,0.1954,0.1954,0.1995,0.1999,0.2003,0.2063,0.2017,0.2019,0.202,0.2151,0.2154,0.2156,0,0,0,0,0,0,0.1893,0.1896,0.1926,0.1918,0.1923,0.1939,0.1942,0.1945,0.1957,0.1974,0.1978,0.1963,0.1994,0.2,0.2044,0.2063,0.202,0.2022,0.2149,0.2152,0.2155,0.2166,0,0,0,0,0,0,0.1892,0.1895,0.1894,0.1917,0.1923,0.1959,0.1943,0.1946,0.196,0.196,0.1983,0.1986,0.1994,0.204,0.2046,0.2066,0.2024,0.2146,0.215,0.2154,0.2163,0.217,0.2175,0,0,0,0,0,0.1891,0.19,0.1894,0.1897,0.192,0.196,0.1966,0.1975,0.1961,0.198,0.1998,0.1985,0.207,0.2044,0.205,0.2071,0.2144,0.2149,0.2154,0.216,0.2168,0.2175,0,0,0,0,0,0,0.1886,0.1902,0.1896,0.1908,0.1935,0.1961,0.1979,0.1978,0.2006,0.2004,0.2011,0.2018,0.2064,0.2075,0.2045,0.2127,0.2106,0.2113,0.211,0.2117,0.2123,0.2123,0.2026,0,0,0,0,0,0.1882,0.1893,0.1914,0.1925,0.194,0.1957,0.1971,0.1979,0.2005,0.2015,0.2033,0.2059,0.2091,0.2108,0.214,0.2182,0.2259,0.2204,0.221,0.2214,0.2222,0.2314,0.2329,0.2173,0.2173,0.2173,0,0,0.188,0.1893,0.1896,0.1925,0.1945,0.1977,0.1965,0.1996,0.2019,0.2017,0.2061,0.2081,0.2109,0.2159,0.218,0.2167,0.2324,0.222,0.2224,0.223,0.2321,0.2336,0.2349,0.2176,0.2175,0.2175,0,0,0.1898,0.19,0.1919,0.1945,0.1978,0.1995,0.2003,0.2036,0.205,0.2093,0.2099,0.2133,0.2181,0.2208,0.2224,0.2285,0.2352,0.2298,0.2325,0.2413,0.2427,0.2439,0.2659,0.269,0.23,0.23,0.23,0,0.1894,0.1919,0.1934,0.1967,0.1988,0.2003,0.2035,0.2059,0.2101,0.2119,0.2112,0.219,0.2204,0.2262,0.2285,0.2295,0.2404,0.2286,0.242,0.2433,0.2445,0.2666,0.27,0.2301,0.2301,0.2301,0.2301,0,0.1934,0.1952,0.1974,0.2013,0.2041,0.2075,0.2107,0.2137,0.2147,0.2166,0.2223,0.2252,0.23,0.2308,0.2312,0.2404,0.2481,0.2415,0.2394,0.2461,0.2692,0.2728,0.2303,0.2302,0.2302,0.2302,0,0,0.1934,0.1986,0.1994,0.2016,0.2066,0.2096,0.214,0.2187,0.2222,0.2252,0.2314,0.2345,0.2358,0.238,0.2394,0.2457,0.266,0.2476,0.248,0.2686,0.2979,0.302,0.3064,0.2611,0.2614,0.2617,0.3143,0,0.1961,0.2022,0.2038,0.2094,0.2131,0.2153,0.2199,0.224,0.2275,0.2346,0.2368,0.2443,0.2387,0.2437,0.2481,0.2621,0.2739,0.2532,0.2891,0.2905,0.292,0.3097,0.3001,0.3456,0.3178,0.3184,0.3188,0,0.2002,0.2037,0.209,0.2141,0.2159,0.2187,0.2259,0.2303,0.2387,0.2424,0.2475,0.2521,0.2653,0.2576,0.2847,0.2726,0.2861,0.2953,0.2974,0.3019,0.3007,0.3325,0.3531,0.3395,0.3244,0.3239,0.3235,0,0.2022,0.2075,0.2113,0.2133,0.2194,0.2215,0.2251,0.2322,0.2399,0.2502,0.2606,0.2692,0.2842,0.2945,0.3137,0.3025,0.3463,0.3333,0.3516,0.3527,0.3519,0.3519,0.3611,0.3526,0.3525,0.3523,0.3522,0,0.2057,0.2089,0.212,0.2148,0.2217,0.2233,0.2322,0.2371,0.2481,0.2622,0.2661,0.283,0.2936,0.3177,0.3261,0.3562,0.3587,0.3596,0.3657,0.3533,0.3528,0.3461,0.3347,0.3543,0.3539,0.3535,0.3531,0,0.2088,0.2101,0.2168,0.2217,0.2236,0.2294,0.2405,0.2481,0.2575,0.2778,0.2849,0.3055,0.3358,0.3505,0.3785,0.3809,0.3935,0.4108,0.4027,0.4062,0.4001,0.3891,0.3978,0.3864,0.4409,0.4413,0.4416,0,0.212,0.2152,0.2234,0.2287,0.2309,0.2388,0.2462,0.2541,0.2649,0.2931,0.3064,0.3394,0.3596,0.4052,0.417,0.4418,0.417,0.4477,0.4171,0.4054,0.3978,0.3745,0.3621,0.4251,0.4253,0.4254,0.4255,0,0.2203,0.2224,0.2282,0.2381,0.2456,0.2541,0.2645,0.2733,0.2874,0.3031,0.3284,0.3455,0.3907,0.4098,0.4424,0.4522,0.4229,0.4512,0.438,0.3873,0.3638,0.3538,0.394,0.4268,0.4266,0.4266,0.4265,0.4264,0.2282,0.2336,0.2402,0.2485,0.2571,0.2637,0.2677,0.2794,0.293,0.3112,0.3355,0.357,0.3939,0.4337,0.4419,0.4496,0.4363,0.4378,0.4292,0.4098,0.3823,0.4313,0.4659,0.466,0.4661,0.4661,0.4662,0,0.2354,0.2393,0.2494,0.2559,0.2609,0.2653,0.2758,0.2763,0.285,0.3093,0.3255,0.3636,0.3878,0.4123,0.4365,0.4284,0.4035,0.4179,0.3784,0.3693,0.4175,0.3991,0.4212,0.4213,0.4213,0.4213,0.4213,0.4213,0.2394,0.2469,0.2489,0.2551,0.2584,0.2596,0.2617,0.2642,0.276,0.2928,0.3125,0.3356,0.3748,0.4063,0.4088,0.4008,0.3651,0.3575,0.3485,0.3762,0.3769,0.3775,0.3573,0.3703,0.3703,0.2869,0.2863,0.2858]},{"header":{"parameterUnit":"m.s-1","parameterCategory":2,"la1":30.2991,"la2":30.254,"lo1":-89.0895,"lo2":-89.0444,"dy":0.0017,"dx":0.0017,"nx":28,"ny":28,"refTime":"2024-04-24T21:00:00:Z","depth":"0","parameterNumber":3,"parameterNumberName":"V-component_of_CURRENTS"},"data":[0,0,0,0,0,0,0,0,0,0,0,0,0,0,0,0,0,0,0,0,0,0,0,0,0,0,0,0,0,0,0,0,0,0,0,0,0,0,0,0,0,0,0,0,0,0,0,0,0,0,0,0,0,0,0,0,0,0,0.0142,0.0142,0,0.0116,0.0116,0.0115,0.0108,0.0108,0.0108,0.0108,0.0086,0.0085,0.0085,0,0,0,0,0,0,0,0,0,0,0,0,0,0.0134,0.0134,0.0142,0.0142,0.0142,0.0116,0.0116,0.0115,0.0108,0.0108,0.0108,0.0108,0.0086,0.0085,0.0085,0,0,0,0,0,0,0,0,0,0,0,0,0,0.0125,0.0135,0.0142,0.0135,0.0134,0.0116,0.0116,0.0115,0.0108,0.0108,0.0108,0.0108,0.0087,0.0086,0.0084,0.0072,0,0,0.0081,0.008,0,0,0,0,0,0,0,0,0.0126,0.0126,0.0136,0.0136,0.0135,0.0116,0.0104,0.0101,0.0108,0.0117,0.0108,0.0109,0.0096,0.0095,0.0088,0.0071,0.007,0.0081,0.008,0.008,0.0079,0,0,0,0,0,0,0,0.0127,0.0126,0.0131,0.0136,0.0135,0.0115,0.0115,0.0103,0.0105,0.0116,0.0116,0.0114,0.0096,0.0089,0.0088,0.007,0.0081,0.008,0.0079,0.0079,0.0047,0.0046,0,0,0,0,0,0,0.0133,0.0127,0.0132,0.0131,0.0131,0.0116,0.0115,0.0121,0.0105,0.0103,0.0113,0.0113,0.0091,0.0089,0.0087,0.0067,0.008,0.0079,0.0078,0.0047,0.0047,0.0046,0,0,0,0,0,0,0.0133,0.0134,0.0133,0.0128,0.0127,0.0116,0.0123,0.0121,0.0112,0.0103,0.0101,0.0107,0.0091,0.0089,0.0083,0.0066,0.0078,0.0077,0.0047,0.0047,0.0046,0.0029,0,0,0,0,0,0,0.0133,0.0135,0.0133,0.0129,0.0127,0.0126,0.0122,0.012,0.011,0.011,0.0097,0.0095,0.0091,0.0085,0.0082,0.0065,0.0076,0.0047,0.0047,0.0047,0.003,0.0028,0.0027,0,0,0,0,0,0.0133,0.0141,0.0133,0.0133,0.0129,0.0126,0.0123,0.0116,0.011,0.0108,0.0103,0.0096,0.0081,0.0084,0.0081,0.0062,0.0047,0.0047,0.0047,0.003,0.0028,0.0027,0,0,0,0,0,0,0.0141,0.014,0.0133,0.014,0.0132,0.0125,0.0123,0.0113,0.0105,0.0102,0.0095,0.0094,0.0083,0.0078,0.0082,0.0054,0.0061,0.006,0.005,0.0048,0.0047,0.0025,0.0075,0,0,0,0,0,0.014,0.0143,0.0137,0.0141,0.014,0.0128,0.0122,0.0113,0.0108,0.0104,0.01,0.009,0.0078,0.0069,0.0064,0.0046,0.0065,0.0033,0.0031,0.003,0.001,0.002,0.0017,0.0045,0.0045,0.0045,0,0,0.0146,0.0143,0.0146,0.0141,0.0137,0.013,0.0126,0.0118,0.01,0.0102,0.0089,0.0088,0.0075,0.006,0.0053,0.0052,0.0043,0.0029,0.0028,0.0009,0.0019,0.0017,0.0014,0.0045,0.0045,0.0045,0,0,0.0159,0.0157,0.0161,0.0153,0.014,0.0129,0.0126,0.0117,0.0104,0.0088,0.0086,0.0071,0.0061,0.0042,0.003,0.0015,0.004,0.002,-0.0016,-0.0005,-0.0008,-0.001,0.006,0.0065,0.0012,0.0012,0.0012,0,0.0162,0.0165,0.0161,0.0158,0.0147,0.0129,0.0123,0.0103,0.0091,0.0076,0.0083,0.0057,0.0044,0.001,-0.0,0.0007,0.0044,-0.0008,-0.0008,-0.001,-0.0012,0.006,0.0065,0.0011,0.0011,0.0011,0.0011,0,0.0172,0.0169,0.0174,0.016,0.0148,0.0141,0.0115,0.0097,0.0078,0.006,0.0033,0.0021,0.001,-0.0004,-0.0015,-0.004,0.0006,-0.0004,-0.0005,-0.0016,0.0062,0.0067,0.001,0.001,0.001,0.0011,0,0,0.0198,0.0183,0.0182,0.0177,0.0145,0.0144,0.0103,0.007,0.0069,0.0026,0.0039,-0.0038,-0.0032,-0.0046,-0.0052,-0.0073,-0.0046,-0.0051,-0.005,0.0018,0.0031,0.0079,0.009,-0.0049,-0.0049,-0.005,0.011,0,0.0205,0.0203,0.0183,0.0174,0.0176,0.0135,0.0115,0.0075,0.0061,0.008,0.0018,0.0052,-0.0049,-0.0006,-0.0069,-0.0008,-0.0041,-0.0085,0.0032,0.0036,0.0077,0.0093,0.0037,0.0173,0.0115,0.0116,0.0117,0,0.0222,0.0217,0.0212,0.0194,0.0192,0.0182,0.0159,0.0146,0.0131,0.0134,0.0102,0.0113,0.0094,0.0035,0.0018,0.0008,-0.0012,-0.0005,0.0002,0.0044,0.009,0.0165,0.0185,-0.0092,0.0125,0.0124,0.0124,0,0.026,0.0239,0.0236,0.0228,0.0205,0.0193,0.0188,0.0164,0.0221,0.0224,0.0328,0.0223,0.0337,0.0212,0.0209,0.0134,0.0239,0.0153,0.0154,0.0162,0.0132,0.0136,-0.0114,0.0088,0.0088,0.0087,0.0087,0,0.0287,0.0292,0.026,0.0269,0.0305,0.0251,0.0317,0.0297,0.036,0.0515,0.0402,0.0566,0.0394,0.0443,0.0296,0.0296,0.0311,0.0154,0.0191,0.0132,0.0134,-0.0094,-0.0222,0.0093,0.0092,0.0091,0.009,0,0.0369,0.0326,0.036,0.0335,0.0341,0.039,0.0485,0.0572,0.0588,0.0817,0.0869,0.0914,0.0977,0.0805,0.0732,0.0534,0.0327,0.0427,0.0403,0.043,0.0093,-0.003,-0.0131,-0.0235,0.042,0.0422,0.0424,0,0.0429,0.0446,0.0463,0.0531,0.0542,0.0609,0.0705,0.0711,0.0855,0.1079,0.1253,0.1363,0.1493,0.1378,0.1027,0.0777,0.0497,0.0551,0.0325,0.0066,-0.0044,-0.0123,-0.0212,0.0313,0.0313,0.0314,0.0314,0,0.0603,0.0599,0.0647,0.0761,0.0866,0.0983,0.1117,0.1254,0.1353,0.1543,0.1845,0.196,0.1847,0.1598,0.1223,0.0983,0.0342,0.0553,0.0262,-0.0176,-0.0257,-0.0333,0.0262,0.0318,0.0318,0.0317,0.0317,0.0317,0.0794,0.0876,0.0944,0.1052,0.1186,0.1366,0.1484,0.1664,0.1911,0.2189,0.2277,0.2446,0.2001,0.1474,0.115,0.0402,0.0422,0.01,-0.0019,-0.0068,-0.0234,0.0403,0.0502,0.0503,0.0504,0.0504,0.0505,0,0.1051,0.1112,0.1241,0.1376,0.1544,0.1539,0.178,0.191,0.2213,0.2467,0.2671,0.2498,0.1943,0.1313,0.0364,-0.0128,-0.0348,-0.0409,-0.063,-0.0691,-0.0155,-0.0237,-0.0268,-0.0268,-0.0268,-0.0267,-0.0267,-0.0267,0.1209,0.1373,0.1393,0.1677,0.1763,0.1974,0.21,0.2307,0.2481,0.2742,0.2792,0.2804,0.2252,0.0639,-0.0511,-0.0773,-0.1132,-0.1151,-0.1291,-0.1064,-0.1031,-0.0999,-0.1115,-0.1329,-0.133,-0.1834,-0.184,-0.1844]}],[{"header":{"parameterUnit":"m.s-1","parameterCategory":2,"la1":30.2991,"la2":30.254,"lo1":-89.0895,"lo2":-89.0444,"dy":0.0017,"dx":0.0017,"nx":28,"ny":28,"refTime":"2024-04-24T21:00:00:Z","depth":"2","parameterNumber":2,"parameterNumberName":"U-component_of_CURRENTS"},"data":[0,0,0,0,0,0,0,0,0,0,0,0,0,0,0,0,0,0,0,0,0,0,0,0,0,0,0,0,0,0,0,0,0,0,0,0,0,0,0,0,0,0,0,0,0,0,0,0,0,0,0,0,0,0,0,0,0,0,0.1803,0.1803,0,0.1799,0.1798,0.1798,0.1759,0.1758,0.1758,0.1757,0.1757,0.1758,0.1758,0,0,0,0,0,0,0,0,0,0,0,0,0,0.1768,0.1769,0.1803,0.1803,0.1803,0.1799,0.1798,0.1798,0.1759,0.1758,0.1758,0.1757,0.1757,0.1758,0.1758,0,0,0,0,0,0,0,0,0,0,0,0,0,0.1771,0.1769,0.1803,0.1787,0.1786,0.1799,0.1798,0.1798,0.1759,0.1758,0.1758,0.1757,0.1757,0.1758,0.1758,0.178,0,0,0.1761,0.1761,0,0,0,0,0,0,0,0,0.1771,0.1772,0.1789,0.1788,0.1787,0.1783,0.1786,0.1793,0.1759,0.1764,0.1757,0.1756,0.177,0.1769,0.1764,0.178,0.178,0.1761,0.1761,0.1761,0.1762,0,0,0,0,0,0,0,0.1771,0.1772,0.1796,0.1789,0.1788,0.1778,0.1777,0.1787,0.1768,0.1764,0.1762,0.1769,0.1768,0.1763,0.1764,0.178,0.1761,0.1761,0.1762,0.1762,0.1809,0.181,0,0,0,0,0,0,0.1782,0.1772,0.1797,0.1797,0.1782,0.1779,0.1778,0.1781,0.1768,0.1766,0.177,0.1768,0.1762,0.1763,0.1764,0.1815,0.1761,0.1762,0.1763,0.1809,0.181,0.181,0,0,0,0,0,0,0.1781,0.1784,0.1797,0.1788,0.1789,0.1781,0.1785,0.1781,0.1788,0.1774,0.1771,0.1782,0.1762,0.1762,0.1765,0.1814,0.1763,0.1763,0.1808,0.1809,0.181,0.1901,0,0,0,0,0,0,0.178,0.1784,0.1788,0.1789,0.1791,0.1816,0.1786,0.1782,0.1795,0.1792,0.1783,0.1781,0.1761,0.1764,0.1766,0.1814,0.1764,0.1807,0.1808,0.181,0.1897,0.1905,0.1912,0,0,0,0,0,0.1779,0.1783,0.1788,0.1792,0.1797,0.1818,0.1818,0.1805,0.1797,0.1807,0.1785,0.1782,0.1775,0.1765,0.1767,0.1816,0.1806,0.1808,0.181,0.1893,0.1903,0.1912,0,0,0,0,0,0,0.1764,0.178,0.1786,0.1793,0.1814,0.1813,0.1816,0.1821,0.1813,0.1806,0.1788,0.1784,0.1808,0.1793,0.1782,0.1831,0.1793,0.1795,0.1856,0.1865,0.1873,0.1888,0.1764,0,0,0,0,0,0.1769,0.1779,0.1799,0.1809,0.1817,0.1825,0.1831,0.1834,0.183,0.1826,0.1821,0.1812,0.1817,0.1823,0.1819,0.1848,0.1882,0.188,0.1888,0.1895,0.1906,0.1976,0.1993,0.1816,0.1816,0.1816,0,0,0.1764,0.1779,0.1782,0.1808,0.1815,0.184,0.1825,0.1844,0.1871,0.1829,0.185,0.1841,0.1828,0.1852,0.1863,0.1847,0.1971,0.1897,0.1903,0.1911,0.198,0.1998,0.2014,0.1818,0.1817,0.1817,0,0,0.1774,0.1777,0.1795,0.1816,0.1846,0.1854,0.187,0.1885,0.1895,0.1921,0.1895,0.1911,0.1918,0.1919,0.1922,0.1971,0.2006,0.1975,0.2035,0.2104,0.212,0.2134,0.2245,0.2268,0.1983,0.1983,0.1983,0,0.1775,0.1797,0.1805,0.1834,0.1852,0.1868,0.1897,0.1916,0.1934,0.1952,0.1937,0.1961,0.1955,0.1993,0.2007,0.1995,0.2049,0.2005,0.2118,0.2132,0.2145,0.2255,0.228,0.1988,0.1987,0.1987,0.1986,0,0.1801,0.1823,0.1834,0.1876,0.1898,0.1924,0.1957,0.1984,0.2002,0.2025,0.2069,0.2058,0.2077,0.2083,0.2063,0.215,0.2168,0.2121,0.2103,0.2169,0.228,0.2304,0.1994,0.1993,0.1991,0.199,0,0,0.1799,0.1844,0.1851,0.1878,0.1922,0.1945,0.1993,0.2044,0.2089,0.2114,0.2176,0.2188,0.2195,0.2197,0.2185,0.224,0.2396,0.2229,0.223,0.2356,0.2597,0.2537,0.2558,0.2373,0.2377,0.238,0.2655,0,0.1823,0.1875,0.1894,0.1948,0.1974,0.2004,0.2049,0.2099,0.2143,0.2208,0.2229,0.2278,0.2237,0.2263,0.2314,0.2374,0.2456,0.2328,0.2499,0.2505,0.2456,0.2581,0.2323,0.2539,0.2679,0.2683,0.2686,0,0.1846,0.1879,0.1928,0.1988,0.2002,0.2042,0.2117,0.2163,0.225,0.2289,0.2344,0.2369,0.2466,0.2409,0.2578,0.2504,0.2566,0.2605,0.2615,0.254,0.2488,0.2483,0.2577,0.2726,0.2723,0.272,0.2717,0,0.1838,0.1905,0.1942,0.1962,0.203,0.2066,0.211,0.2189,0.2254,0.2355,0.2431,0.2509,0.2597,0.2667,0.2775,0.2692,0.2975,0.2865,0.2876,0.2875,0.2676,0.265,0.299,0.299,0.2989,0.2988,0.2988,0,0.1849,0.1884,0.1946,0.1968,0.2032,0.2076,0.2161,0.2214,0.2325,0.2426,0.2481,0.2589,0.2668,0.2827,0.2866,0.2993,0.3068,0.2932,0.2946,0.2703,0.2677,0.2825,0.2803,0.2999,0.2996,0.2994,0.2993,0,0.1833,0.1869,0.192,0.1995,0.2029,0.2073,0.2196,0.2269,0.237,0.2514,0.2563,0.2723,0.2908,0.3016,0.318,0.3137,0.3237,0.3258,0.2997,0.2971,0.3065,0.3044,0.3276,0.3276,0.3277,0.3277,0.3277,0,0.1832,0.1852,0.1932,0.1977,0.2017,0.2099,0.2169,0.2276,0.2364,0.2592,0.2673,0.2897,0.3012,0.3259,0.3239,0.3333,0.336,0.3134,0.288,0.3107,0.3098,0.3075,0.3054,0.2691,0.2686,0.2682,0.2679,0,0.1826,0.1848,0.1885,0.1971,0.2048,0.2123,0.2233,0.2303,0.2451,0.259,0.278,0.2891,0.3088,0.3041,0.3154,0.3144,0.3078,0.3054,0.3412,0.2629,0.2569,0.2554,0.255,0.2645,0.2649,0.2651,0.2653,0.2654,0.1818,0.1838,0.1887,0.196,0.2044,0.2113,0.2142,0.2273,0.2392,0.2501,0.2694,0.2755,0.2811,0.2794,0.2793,0.278,0.2931,0.2771,0.2777,0.2789,0.2643,0.2582,0.264,0.2643,0.2645,0.2648,0.265,0,0.1777,0.1818,0.1888,0.1946,0.1985,0.2064,0.216,0.215,0.2235,0.2359,0.2444,0.2272,0.2287,0.2389,0.2298,0.2308,0.2225,0.2235,0.2093,0.213,0.2163,0.1977,0.1801,0.1799,0.1796,0.1794,0,0,0.176,0.1775,0.1802,0.1844,0.1908,0.1917,0.1937,0.1948,0.1999,0.1954,0.1956,0.2072,0.2271,0.1959,0.1962,0.188,0.1977,0.1812,0.2496,0.2364,0.2392,0.2485,0.2245,0,0,0,0,0]},{"header":{"parameterUnit":"m.s-1","parameterCategory":2,"la1":30.2991,"la2":30.254,"lo1":-89.0895,"lo2":-89.0444,"dy":0.0017,"dx":0.0017,"nx":28,"ny":28,"refTime":"2024-04-24T21:00:00:Z","depth":"2","parameterNumber":3,"parameterNumberName":"V-component_of_CURRENTS"},"data":[0,0,0,0,0,0,0,0,0,0,0,0,0,0,0,0,0,0,0,0,0,0,0,0,0,0,0,0,0,0,0,0,0,0,0,0,0,0,0,0,0,0,0,0,0,0,0,0,0,0,0,0,0,0,0,0,0,0,-0.0428,-0.043,0,-0.0585,-0.0587,-0.0589,-0.0656,-0.0655,-0.0655,-0.0655,-0.0603,-0.0602,-0.0601,0,0,0,0,0,0,0,0,0,0,0,0,0,-0.0269,-0.0271,-0.0428,-0.043,-0.0432,-0.0585,-0.0587,-0.0589,-0.0656,-0.0655,-0.0655,-0.0655,-0.0603,-0.0602,-0.0601,0,0,0,0,0,0,0,0,0,0,0,0,0,-0.0373,-0.0272,-0.0428,-0.0484,-0.049,-0.0585,-0.0587,-0.059,-0.0656,-0.0655,-0.0655,-0.0655,-0.0604,-0.0602,-0.06,-0.0599,0,0,-0.0595,-0.0595,0,0,0,0,0,0,0,0,-0.0367,-0.0379,-0.0473,-0.048,-0.0487,-0.06,-0.0512,-0.0582,-0.0656,-0.0593,-0.0655,-0.0654,-0.0583,-0.0583,-0.0617,-0.0596,-0.0594,-0.0595,-0.0594,-0.0593,-0.0593,0,0,0,0,0,0,0,-0.036,-0.0373,-0.049,-0.0475,-0.0484,-0.0529,-0.0543,-0.0527,-0.0584,-0.0598,-0.0604,-0.0621,-0.0585,-0.0618,-0.0615,-0.0593,-0.0595,-0.0594,-0.0593,-0.0592,-0.0578,-0.0578,0,0,0,0,0,0,-0.0337,-0.0366,-0.0485,-0.0495,-0.0425,-0.0532,-0.0547,-0.0565,-0.0589,-0.0595,-0.0621,-0.0624,-0.0621,-0.0617,-0.0613,-0.0611,-0.0593,-0.0592,-0.0591,-0.0577,-0.0578,-0.0579,0,0,0,0,0,0,-0.0333,-0.0346,-0.0479,-0.0434,-0.0454,-0.0535,-0.0554,-0.0568,-0.058,-0.0609,-0.061,-0.0617,-0.0621,-0.0615,-0.0605,-0.0608,-0.0591,-0.0589,-0.0576,-0.0577,-0.0578,-0.0604,0,0,0,0,0,0,-0.0327,-0.0343,-0.0348,-0.0432,-0.0456,-0.051,-0.0555,-0.0571,-0.0593,-0.0597,-0.0605,-0.0603,-0.062,-0.0608,-0.0604,-0.0606,-0.0588,-0.0576,-0.0577,-0.0578,-0.0603,-0.0606,-0.0609,0,0,0,0,0,-0.0321,-0.0335,-0.0347,-0.0362,-0.0459,-0.0509,-0.0525,-0.0582,-0.0593,-0.0592,-0.0617,-0.0601,-0.0613,-0.0607,-0.0602,-0.0603,-0.0575,-0.0577,-0.0578,-0.0601,-0.0605,-0.0609,0,0,0,0,0,0,-0.0275,-0.0346,-0.036,-0.0396,-0.0433,-0.052,-0.0542,-0.0563,-0.0588,-0.0585,-0.0605,-0.0604,-0.0602,-0.0593,-0.0587,-0.0605,-0.0592,-0.0592,-0.0611,-0.0615,-0.0618,-0.0602,-0.0587,0,0,0,0,0,-0.0263,-0.0284,-0.035,-0.037,-0.0393,-0.0456,-0.0483,-0.0508,-0.0547,-0.0559,-0.0582,-0.0597,-0.061,-0.0602,-0.0614,-0.0607,-0.0596,-0.0606,-0.0609,-0.0612,-0.0597,-0.0604,-0.0606,-0.0583,-0.0583,-0.0583,0,0,-0.0257,-0.029,-0.0308,-0.0359,-0.0404,-0.0436,-0.0471,-0.0499,-0.0523,-0.0542,-0.0584,-0.0602,-0.0611,-0.0631,-0.0627,-0.0617,-0.0614,-0.0614,-0.0616,-0.0599,-0.0605,-0.0607,-0.0609,-0.0584,-0.0584,-0.0584,0,0,-0.0242,-0.0277,-0.0288,-0.0315,-0.0358,-0.0404,-0.0398,-0.0471,-0.0502,-0.0525,-0.0566,-0.0584,-0.0597,-0.0632,-0.0639,-0.0653,-0.0634,-0.0654,-0.065,-0.0657,-0.0659,-0.066,-0.0652,-0.0652,-0.0652,-0.0652,-0.0652,0,-0.0222,-0.0253,-0.0296,-0.0308,-0.0337,-0.0381,-0.0397,-0.044,-0.0499,-0.052,-0.0527,-0.0591,-0.06,-0.0631,-0.0658,-0.0659,-0.0654,-0.0637,-0.0661,-0.0662,-0.0662,-0.0654,-0.0654,-0.0653,-0.0653,-0.0653,-0.0653,0,-0.0223,-0.0242,-0.0253,-0.0288,-0.0315,-0.0335,-0.0395,-0.0421,-0.0455,-0.05,-0.0535,-0.0577,-0.0603,-0.0627,-0.0646,-0.0668,-0.0661,-0.0668,-0.0649,-0.0666,-0.0656,-0.0656,-0.0655,-0.0655,-0.0654,-0.0654,0,0,-0.0197,-0.0244,-0.0245,-0.0254,-0.0306,-0.0327,-0.0364,-0.0417,-0.0428,-0.049,-0.0503,-0.0575,-0.0592,-0.0603,-0.0638,-0.0661,-0.0678,-0.0667,-0.0667,-0.0655,-0.0682,-0.072,-0.0723,-0.0692,-0.0692,-0.0692,-0.0674,0,-0.0184,-0.0194,-0.0229,-0.0248,-0.0269,-0.0315,-0.0344,-0.0383,-0.0422,-0.0446,-0.0497,-0.051,-0.0584,-0.0575,-0.0623,-0.0649,-0.0677,-0.0681,-0.067,-0.0669,-0.0698,-0.0724,-0.066,-0.0643,-0.0674,-0.0674,-0.0674,0,-0.0181,-0.0187,-0.0197,-0.0227,-0.024,-0.025,-0.0289,-0.0316,-0.0359,-0.0374,-0.041,-0.0437,-0.0479,-0.052,-0.0598,-0.0597,-0.0641,-0.0675,-0.0675,-0.0696,-0.0707,-0.0631,-0.064,-0.0672,-0.0672,-0.0672,-0.0673,0,-0.0152,-0.0172,-0.0175,-0.0187,-0.0224,-0.0226,-0.0244,-0.0287,-0.0283,-0.0303,-0.0267,-0.0356,-0.0335,-0.0431,-0.0514,-0.0545,-0.0579,-0.0623,-0.0705,-0.0707,-0.0641,-0.0638,-0.0674,-0.0674,-0.0674,-0.0674,-0.0674,0,-0.0146,-0.0148,-0.0149,-0.0154,-0.0141,-0.0175,-0.0159,-0.0188,-0.0173,-0.014,-0.021,-0.0185,-0.0309,-0.0349,-0.0466,-0.0575,-0.0539,-0.0702,-0.071,-0.0651,-0.0649,-0.0663,-0.0662,-0.0673,-0.0673,-0.0673,-0.0673,0,-0.0133,-0.0137,-0.0139,-0.0143,-0.013,-0.0119,-0.0082,-0.0065,-0.005,0.001,0.0032,-0.002,-0.0105,-0.0236,-0.0357,-0.0478,-0.0589,-0.0635,-0.0553,-0.0556,-0.0728,-0.0728,-0.0739,-0.074,-0.0741,-0.0742,-0.0743,0,-0.0136,-0.0133,-0.0114,-0.009,-0.0087,-0.0053,-0.0023,-0.0005,0.0034,0.01,0.0142,0.0103,0.0061,-0.0136,-0.0344,-0.0534,-0.0594,-0.0608,-0.0686,-0.073,-0.0736,-0.0735,-0.0734,-0.0597,-0.0597,-0.0596,-0.0596,0,-0.0147,-0.0133,-0.0125,-0.0069,-0.0028,0.0024,0.0082,0.014,0.0183,0.0259,0.0322,0.0315,0.0131,-0.0052,-0.031,-0.0456,-0.0585,-0.0612,-0.0642,-0.0612,-0.0601,-0.0606,-0.0609,-0.0592,-0.0593,-0.0593,-0.0593,-0.0593,-0.0148,-0.0134,-0.0106,-0.0055,-0.0,0.0083,0.0152,0.024,0.0336,0.0492,0.046,0.0513,0.0286,-0.0031,-0.0285,-0.0554,-0.0592,-0.0674,-0.0672,-0.0671,-0.068,-0.0674,-0.0679,-0.0679,-0.068,-0.0681,-0.0681,0,-0.0152,-0.0127,-0.0089,-0.0029,0.004,0.0083,0.021,0.0325,0.0465,0.0613,0.0712,0.0572,0.0363,0.0082,-0.0296,-0.0554,-0.0558,-0.0646,-0.0581,-0.0583,-0.0585,-0.0588,-0.0563,-0.0563,-0.0564,-0.0564,0,0,-0.0158,-0.0127,-0.0104,-0.0008,0.006,0.0199,0.0292,0.0481,0.0631,0.0795,0.0874,0.0907,0.0524,0.0281,-0.0085,-0.0313,-0.0386,-0.0361,-0.0427,-0.0309,-0.0307,-0.0576,-0.058,0,0,0,0,0]}],[{"header":{"parameterUnit":"m.s-1","parameterCategory":2,"la1":30.2991,"la2":30.254,"lo1":-89.0895,"lo2":-89.0444,"dy":0.0017,"dx":0.0017,"nx":28,"ny":28,"refTime":"2024-04-24T21:00:00:Z","depth":"4","parameterNumber":2,"parameterNumberName":"U-component_of_CURRENTS"},"data":[0,0,0,0,0,0,0,0,0,0,0,0,0,0,0,0,0,0,0,0,0,0,0,0,0,0,0,0,0,0,0,0,0,0,0,0,0,0,0,0,0,0,0,0,0,0,0,0,0,0,0,0,0,0,0,0,0,0,0.0934,0.0934,0,0.0962,0.0962,0.0962,0.098,0.098,0.0981,0.0981,0.1003,0.1003,0.1003,0,0,0,0,0,0,0,0,0,0,0,0,0,0.0872,0.0873,0.0934,0.0934,0.0935,0.0962,0.0962,0.0962,0.098,0.098,0.0981,0.0981,0.1003,0.1003,0.1003,0,0,0,0,0,0,0,0,0,0,0,0,0,0.0896,0.0873,0.0933,0.0949,0.0951,0.0962,0.0962,0.0962,0.098,0.098,0.0981,0.0982,0.1003,0.1003,0.1003,0.0993,0,0,0.1004,0.1004,0,0,0,0,0,0,0,0,0.0895,0.0898,0.0946,0.0948,0.0951,0.0971,0.0948,0.0973,0.098,0.0966,0.0981,0.0982,0.0993,0.0994,0.0994,0.0994,0.0995,0.1004,0.1004,0.1004,0.1004,0,0,0,0,0,0,0,0.0893,0.0897,0.0942,0.0947,0.095,0.0947,0.0951,0.0952,0.0973,0.0967,0.0969,0.0977,0.0994,0.0993,0.0994,0.0995,0.1004,0.1004,0.1005,0.1005,0.108,0.1082,0,0,0,0,0,0,0.0897,0.0895,0.0941,0.0943,0.0927,0.0948,0.0952,0.0961,0.0973,0.0977,0.0976,0.0978,0.0992,0.0994,0.0995,0.1066,0.1004,0.1005,0.1005,0.1079,0.1081,0.1083,0,0,0,0,0,0,0.0895,0.09,0.094,0.0922,0.0927,0.0949,0.0958,0.0961,0.0989,0.0981,0.0984,0.1004,0.0993,0.0995,0.1023,0.1063,0.1005,0.1005,0.1077,0.1079,0.1082,0.1154,0,0,0,0,0,0,0.0893,0.09,0.0914,0.0922,0.0929,0.0961,0.0958,0.0962,0.0993,0.0995,0.1005,0.1006,0.0994,0.1023,0.1023,0.1063,0.1005,0.1074,0.1078,0.1081,0.1149,0.1159,0.1167,0,0,0,0,0,0.0891,0.0904,0.0915,0.0921,0.0945,0.0962,0.0965,0.098,0.0994,0.1007,0.1021,0.1008,0.1045,0.1024,0.1024,0.1065,0.1073,0.1077,0.1081,0.1145,0.1157,0.1167,0,0,0,0,0,0,0.0885,0.0908,0.0919,0.094,0.0959,0.0967,0.0983,0.0997,0.1018,0.1029,0.1023,0.1025,0.1069,0.1056,0.1033,0.1099,0.106,0.1065,0.1109,0.112,0.1129,0.1144,0.1006,0,0,0,0,0,0.0891,0.0909,0.0929,0.0949,0.0961,0.0979,0.0993,0.1006,0.1022,0.1033,0.1046,0.1062,0.1081,0.1092,0.1102,0.113,0.1128,0.116,0.1169,0.1177,0.1191,0.1223,0.1236,0.1096,0.1096,0.1096,0,0,0.0892,0.0911,0.092,0.0949,0.0965,0.0983,0.0989,0.1018,0.1041,0.1031,0.1076,0.1094,0.1096,0.1134,0.1153,0.1131,0.1215,0.1182,0.1188,0.1199,0.1228,0.1242,0.1254,0.1099,0.1099,0.1098,0,0,0.0898,0.0924,0.0939,0.0959,0.0994,0.1004,0.1021,0.105,0.1075,0.1113,0.1122,0.1164,0.1187,0.1202,0.1209,0.1272,0.1262,0.1287,0.1342,0.1373,0.1385,0.1395,0.1404,0.1415,0.1289,0.1289,0.1289,0,0.0899,0.0922,0.0946,0.0969,0.0986,0.1018,0.1035,0.1063,0.1103,0.1131,0.1137,0.1216,0.1216,0.1272,0.1302,0.1292,0.1307,0.1299,0.1384,0.1394,0.1404,0.1411,0.1422,0.1293,0.1293,0.1292,0.1292,0,0.0912,0.0937,0.0951,0.0987,0.1009,0.1032,0.1069,0.1111,0.115,0.118,0.1262,0.1284,0.1334,0.1348,0.1345,0.1425,0.1414,0.1392,0.1355,0.1422,0.1425,0.1435,0.1299,0.1297,0.1296,0.1295,0,0,0.0886,0.0946,0.0951,0.0977,0.1021,0.1042,0.109,0.114,0.1189,0.1254,0.1312,0.1381,0.1426,0.144,0.146,0.1495,0.1568,0.1488,0.1487,0.1494,0.164,0.1564,0.1566,0.1574,0.1577,0.1578,0.1614,0,0.0886,0.0923,0.0955,0.0997,0.1015,0.1066,0.1097,0.1155,0.1221,0.1287,0.1351,0.1426,0.1451,0.1502,0.1544,0.1576,0.16,0.156,0.1578,0.1578,0.1499,0.1577,0.1586,0.1621,0.1623,0.1625,0.1626,0,0.0881,0.0907,0.0938,0.1,0.1014,0.105,0.1129,0.1173,0.1267,0.1327,0.1433,0.1486,0.1593,0.1578,0.1687,0.1673,0.1668,0.1673,0.1673,0.1586,0.152,0.1543,0.1643,0.1642,0.1641,0.164,0.1639,0,0.0834,0.0899,0.0925,0.0945,0.1012,0.1053,0.1102,0.1191,0.1249,0.1386,0.1465,0.157,0.1663,0.1696,0.1751,0.1733,0.1827,0.1784,0.1699,0.1692,0.1715,0.1704,0.182,0.1819,0.1819,0.1819,0.1819,0,0.0807,0.0833,0.0918,0.093,0.0963,0.1041,0.1117,0.1177,0.1296,0.1365,0.1511,0.1598,0.1709,0.1777,0.1773,0.1793,0.1852,0.173,0.1709,0.1743,0.1735,0.1721,0.1709,0.1821,0.182,0.182,0.182,0,0.0744,0.0795,0.0831,0.0914,0.0936,0.0974,0.1106,0.1171,0.1319,0.1419,0.1479,0.166,0.1774,0.1838,0.1886,0.1841,0.1835,0.18,0.1845,0.1822,0.1665,0.1656,0.1718,0.1716,0.1714,0.1712,0.1711,0,0.0713,0.072,0.0796,0.0826,0.0872,0.0957,0.0997,0.1138,0.1225,0.1438,0.1472,0.1651,0.1744,0.1784,0.1843,0.1839,0.1803,0.1788,0.1723,0.1688,0.1661,0.1655,0.1649,0.1708,0.1708,0.1707,0.1707,0,0.0641,0.0676,0.0698,0.0744,0.0799,0.0869,0.0968,0.1006,0.1172,0.1331,0.1452,0.1533,0.1651,0.1719,0.1749,0.1726,0.1803,0.1769,0.1771,0.171,0.1677,0.165,0.1647,0.17,0.1701,0.1702,0.1702,0,0.0579,0.0568,0.0604,0.0639,0.0706,0.0752,0.0826,0.0941,0.1023,0.1255,0.1276,0.1463,0.1609,0.1659,0.167,0.1679,0.1642,0.1574,0.1586,0.1593,0.1541,0.1481,0.1446,0,0,0,0,0,0.052,0.0483,0.0509,0.0535,0.0622,0.0663,0.0781,0.088,0.102,0.1062,0.1172,0.1266,0.1372,0.148,0.1462,0.1595,0.1624,0.1566,0.1544,0.1666,0.1673,0.1626,0,0,0,0,0,0,0.0461,0.0462,0.045,0.045,0.0477,0.0549,0.0615,0.0728,0.0786,0.0953,0.1028,0.118,0.1307,0.1356,0.1432,0.1458,0.1416,0.168,0.1677,0.1662,0.1668,0.1674,0.1629,0,0,0,0,0]},{"header":{"parameterUnit":"m.s-1","parameterCategory":2,"la1":30.2991,"la2":30.254,"lo1":-89.0895,"lo2":-89.0444,"dy":0.0017,"dx":0.0017,"nx":28,"ny":28,"refTime":"2024-04-24T21:00:00:Z","depth":"4","parameterNumber":3,"parameterNumberName":"V-component_of_CURRENTS"},"data":[0,0,0,0,0,0,0,0,0,0,0,0,0,0,0,0,0,0,0,0,0,0,0,0,0,0,0,0,0,0,0,0,0,0,0,0,0,0,0,0,0,0,0,0,0,0,0,0,0,0,0,0,0,0,0,0,0,0,-0.0176,-0.0176,0,-0.0206,-0.0206,-0.0206,-0.0243,-0.0243,-0.0244,-0.0245,-0.0297,-0.0298,-0.0298,0,0,0,0,0,0,0,0,0,0,0,0,0,-0.0127,-0.0128,-0.0176,-0.0176,-0.0177,-0.0206,-0.0206,-0.0206,-0.0242,-0.0243,-0.0244,-0.0245,-0.0297,-0.0298,-0.0298,0,0,0,0,0,0,0,0,0,0,0,0,0,-0.015,-0.0128,-0.0176,-0.0199,-0.0202,-0.0206,-0.0206,-0.0206,-0.0242,-0.0243,-0.0244,-0.0245,-0.0296,-0.0297,-0.0299,-0.0284,0,0,-0.0302,-0.0302,0,0,0,0,0,0,0,0,-0.0149,-0.0152,-0.0195,-0.0198,-0.0201,-0.0223,-0.0208,-0.0234,-0.0242,-0.0225,-0.0245,-0.0246,-0.0275,-0.0277,-0.0278,-0.0286,-0.0289,-0.0302,-0.0303,-0.0303,-0.0303,0,0,0,0,0,0,0,-0.0147,-0.0151,-0.0186,-0.0196,-0.0199,-0.0201,-0.0206,-0.0213,-0.0243,-0.0227,-0.023,-0.0235,-0.0276,-0.0277,-0.028,-0.0289,-0.0302,-0.0303,-0.0304,-0.0304,-0.031,-0.0309,0,0,0,0,0,0,-0.0147,-0.0149,-0.0185,-0.0187,-0.0179,-0.0201,-0.0206,-0.0213,-0.0242,-0.0248,-0.0235,-0.0237,-0.0275,-0.0278,-0.0282,-0.0259,-0.0303,-0.0304,-0.0305,-0.031,-0.0309,-0.0309,0,0,0,0,0,0,-0.0146,-0.015,-0.0184,-0.017,-0.0175,-0.0202,-0.0209,-0.0213,-0.0224,-0.0248,-0.0254,-0.0242,-0.0276,-0.028,-0.029,-0.0262,-0.0305,-0.0306,-0.0311,-0.031,-0.0309,-0.0219,0,0,0,0,0,0,-0.0144,-0.0149,-0.0154,-0.017,-0.0176,-0.0185,-0.0208,-0.0213,-0.0226,-0.023,-0.0256,-0.0262,-0.0277,-0.0289,-0.0291,-0.0265,-0.0307,-0.0311,-0.031,-0.0309,-0.0223,-0.0216,-0.0209,0,0,0,0,0,-0.0143,-0.0141,-0.0154,-0.0159,-0.0182,-0.0184,-0.0187,-0.0208,-0.0226,-0.0223,-0.0243,-0.0261,-0.0285,-0.0289,-0.0292,-0.0265,-0.0312,-0.0311,-0.031,-0.0226,-0.0217,-0.021,0,0,0,0,0,0,-0.0123,-0.0145,-0.016,-0.0167,-0.0176,-0.0191,-0.0191,-0.0208,-0.0221,-0.0226,-0.0254,-0.026,-0.026,-0.0279,-0.0283,-0.0267,-0.0301,-0.0301,-0.0237,-0.0229,-0.0222,-0.0188,-0.0307,0,0,0,0,0,-0.0121,-0.0127,-0.0146,-0.0151,-0.0154,-0.0174,-0.0179,-0.0192,-0.0206,-0.0213,-0.0232,-0.025,-0.0254,-0.0257,-0.0271,-0.0257,-0.0292,-0.0245,-0.0238,-0.0232,-0.0208,-0.0236,-0.0229,-0.0305,-0.0305,-0.0305,0,0,-0.0116,-0.0128,-0.0132,-0.0147,-0.0156,-0.0138,-0.0179,-0.0182,-0.0162,-0.0216,-0.0201,-0.023,-0.025,-0.0236,-0.0237,-0.0248,-0.0235,-0.023,-0.0225,-0.0204,-0.0234,-0.0227,-0.022,-0.0304,-0.0305,-0.0305,0,0,-0.0091,-0.0117,-0.0106,-0.0106,-0.0117,-0.0121,-0.0122,-0.0137,-0.014,-0.0133,-0.0164,-0.017,-0.0188,-0.0182,-0.0184,-0.0147,-0.0204,-0.0167,-0.0092,-0.012,-0.0113,-0.0108,-0.0168,-0.0168,-0.0155,-0.0155,-0.0154,0,-0.0082,-0.0068,-0.0101,-0.0082,-0.0068,-0.0108,-0.0073,-0.0078,-0.0094,-0.008,-0.0119,-0.0125,-0.0149,-0.0109,-0.01,-0.0125,-0.0173,-0.0118,-0.0109,-0.0104,-0.01,-0.0162,-0.0164,-0.015,-0.0151,-0.0151,-0.0152,0,-0.0041,-0.0026,-0.0016,0.0,0.0008,0.003,0.0024,0.0033,0.0017,0.0013,0.0027,-0.001,-0.0011,-0.0022,-0.0048,-0.0022,-0.0079,-0.0103,-0.0124,-0.0087,-0.0156,-0.0159,-0.0144,-0.0145,-0.0147,-0.0148,0,0,-0.0024,0.001,0.0014,0.0048,0.006,0.0076,0.0117,0.0151,0.0179,0.0154,0.0186,0.0179,0.0138,0.0133,0.0092,0.0075,0.0048,0.0001,-0.0002,-0.0048,-0.0049,-0.0084,-0.0092,0.0014,0.0015,0.0015,-0.0118,0,0.0027,0.0091,0.0095,0.0169,0.0207,0.0207,0.0251,0.0271,0.0266,0.0277,0.0251,0.0247,0.0202,0.0185,0.0169,0.0062,0.0047,0.0085,-0.0086,-0.0091,-0.0117,-0.0093,0.0017,-0.012,-0.0121,-0.0122,-0.0122,0,0.007,0.0114,0.0197,0.0271,0.0287,0.0326,0.0393,0.0425,0.0436,0.0423,0.042,0.0364,0.0338,0.0281,0.0167,0.0181,0.0089,0.0013,0.0006,-0.0051,-0.013,-0.0162,-0.0129,-0.0129,-0.0128,-0.0128,-0.0127,0,0.0104,0.0186,0.0262,0.0285,0.0357,0.0405,0.0443,0.0475,0.0498,0.0502,0.0482,0.0453,0.0389,0.0305,0.0132,0.0141,-0.0024,-0.0034,-0.0138,-0.0144,-0.0114,-0.0118,-0.0082,-0.0082,-0.0081,-0.0081,-0.008,0,0.0156,0.0212,0.0286,0.0325,0.0416,0.0452,0.0529,0.0556,0.0577,0.0588,0.0546,0.0511,0.0386,0.0264,0.0147,-0.0028,-0.0017,-0.0114,-0.0166,-0.0079,-0.0078,-0.0119,-0.0121,-0.0086,-0.0085,-0.0084,-0.0083,0,0.0166,0.0218,0.0301,0.0396,0.043,0.0487,0.0562,0.0604,0.0616,0.0618,0.0609,0.0522,0.0363,0.022,0.004,-0.0036,-0.0178,-0.0235,-0.0161,-0.021,-0.0281,-0.0277,-0.034,-0.0342,-0.0344,-0.0346,-0.0347,0,0.0171,0.0219,0.033,0.0375,0.0418,0.0504,0.0558,0.0615,0.0641,0.0612,0.0598,0.0461,0.038,0.01,-0.0038,-0.025,-0.0267,-0.0335,-0.0252,-0.0255,-0.03,-0.0294,-0.0288,-0.0349,-0.035,-0.035,-0.0351,0,0.0173,0.021,0.0276,0.0378,0.0447,0.0527,0.06,0.0615,0.0658,0.0655,0.0578,0.0453,0.0266,0.0085,-0.0097,-0.0238,-0.0281,-0.0352,-0.0348,-0.027,-0.0268,-0.0309,-0.0301,-0.0357,-0.0356,-0.0355,-0.0355,0,0.0157,0.0195,0.0283,0.0376,0.0456,0.0528,0.0574,0.0605,0.0637,0.0611,0.0572,0.0404,0.0312,0.0086,-0.0081,-0.0228,-0.0235,-0.0241,-0.0243,-0.0238,-0.0159,-0.0137,-0.0218,0,0,0,0,0,0.0139,0.0194,0.0275,0.0384,0.0463,0.052,0.0593,0.0631,0.0652,0.0605,0.0601,0.0437,0.0203,0.0097,-0.0055,-0.0112,-0.027,-0.0293,-0.028,-0.0389,-0.0383,-0.0308,0,0,0,0,0,0,0.0128,0.02,0.0268,0.0374,0.0442,0.0539,0.0584,0.0606,0.0589,0.058,0.0452,0.0413,0.0174,0.028,-0.0058,-0.0103,-0.0109,-0.04,-0.0402,-0.0393,-0.0387,-0.0382,-0.0302,0,0,0,0,0]}]]